Location: Mequon Rotary Park
(43.2522°N, 87.9594°W)
Time: 22:34:04
(UTC-05:00)

Daily predictions for brighter satellites

Satellite Brightness Start Highest point End
(mag) Time Altitude Azimuth Time Altitude Azimuth Time Altitude Azimuth
Atlas Centaur 2 3.7 20:46:37 10° SW 20:52:18 29° S 20:58:54 10° ESE
Cosmos 1992 Rocket 4.2 20:48:56 10° NNW 20:54:08 59° ENE 20:59:15 10° SSE
ISS -2.7 20:53:40 10° WSW 20:56:55 61° NNW 21:00:10 10° NE
Cosmos 1943 3.5 20:52:28 10° S 20:57:49 46° ESE 21:03:14 10° NE
SeaSat 1 3.6 20:53:49 10° ESE 20:58:09 32° NE 21:02:29 10° N
Cosmos 2228 3.9 20:53:53 10° NNW 20:58:11 53° W 21:02:28 10° S
Tsikada Rocket 4.1 20:52:21 10° S 20:58:43 73° E 21:05:04 10° NNE
H-2A R/B 2.1 20:55:13 10° SSE 20:59:30 76° ENE 21:03:56 10° N
deb Chang Zheng 4 3.6 21:01:08 10° NNE 21:05:33 75° ESE 21:09:54 10° S
Cosmos 1626 Rocket 3.9 21:02:15 10° SSW 21:06:40 73° W 21:11:04 10° N
Cosmos 1238 4.3 21:04:06 10° S 21:07:03 52° E 21:10:04 10° NNE
H-2A R/B 4.5 21:07:22 10° SSW 21:10:59 33° W 21:14:36 10° NNW
CZ-4B R/B 4.4 21:09:05 10° NE 21:13:38 31° E 21:18:14 10° SSE
Lacrosse 5 rocket 4.3 21:11:30 10° NW 21:13:43 14° NNW 21:16:00 10° NNE
PSLV R/B 3.5 21:14:09 10° W 21:17:38 60° S 21:21:09 10° ESE
Cosmos 1939 Rocket 3.0 21:13:49 10° SSE 21:17:58 90° E 21:22:07 10° NNW
Nimbus 7 Rocket 4.4 21:15:27 10° NNE 21:21:24 73° ESE 21:27:17 10° S
ATLAS 3B R/B 3.0 21:14:32 10° SSW 21:22:07 64° ESE 21:29:33 10° NE
Terra 3.9 21:20:10 10° E 21:22:33 14° ENE 21:24:56 10° NNE
ARGOS 4.1 21:18:01 10° SE 21:22:42 33° ENE 21:27:30 10° N
Cosmos 1190 Rocket 4.1 21:17:41 10° S 21:22:53 60° ESE 21:28:08 10° NNE
Cosmos 1346 Rocket 3.3 21:20:17 10° SSE 21:23:56 39° E 21:27:39 10° NNE
SPOT 5 2.6 21:21:15 10° SSE 21:25:36 72° ENE 21:29:54 10° N
Cosmos 1634 Rocket 4.1 21:20:41 10° N 21:26:51 65° E 21:32:59 10° SSE
Cosmos 1953 Rocket 4.0 21:23:48 10° SSE 21:27:59 45° E 21:32:15 10° NNE
CZ-4 SHROUD 3.2 21:25:30 10° SSE 21:28:35 85° E 21:31:46 10° NNW
MetOp-B 4.3 21:24:19 10° SSE 21:29:32 62° ENE 21:34:50 10° N
PSLV R/B 3.1 21:26:38 11° SSE 21:29:34 80° ENE 21:32:41 10° N
Lacrosse 5 4.4 21:31:39 10° NW 21:34:57 17° N 21:38:13 10° NE
SL-8 R/B 4.3 21:31:08 10° WNW 21:35:53 55° NNE 21:40:39 10° E
H-2A R/B 3.6 21:33:42 11° ESE 21:37:11 22° ENE 21:41:00 10° NNE
Cosmos 2346 Rocket 4.4 21:32:03 10° S 21:38:11 73° E 21:44:18 10° NNE
Cosmos 2369 Rocket 2.4 21:33:44 10° NNW 21:39:24 73° WSW 21:44:34 12° SSE
Cosmos 676 Rocket 4.2 21:35:17 10° S 21:40:26 51° ESE 21:45:35 10° NNE
USA 234 3.7 21:37:15 10° ESE 21:43:38 57° NNE 21:50:02 10° NW
ERS-1 Rocket 4.4 21:39:56 10° SSW 21:44:30 34° W 21:49:05 10° NNW
Cosmos 2279 Rocket 4.3 21:39:14 10° N 21:45:21 53° ENE 21:50:14 16° SSE
SPOT 1/Viking Rocket 3.7 21:41:55 15° SSE 21:46:08 63° ENE 21:51:13 10° N
YAOGAN 6 2.7 21:43:54 18° SSE 21:46:36 63° ENE 21:50:19 10° N
COSMOS 2455 4.0 21:41:24 10° SW 21:47:12 48° NW 21:53:01 10° NNE
Cosmos 1766 3.5 21:48:45 10° N 21:52:43 58° E 21:55:14 21° SSE
SL-08 RB Rocket 4.1 21:51:27 19° SE 21:54:23 47° ENE 21:58:44 10° N
Cosmos 1900 4.4 21:49:19 10° SSW 21:54:28 88° WNW 21:59:38 10° NNE
NOAA 11 4.4 21:51:02 18° SE 21:55:01 56° ENE 22:00:19 10° N
Cosmos 1758 Rocket 3.5 21:57:13 11° S 22:01:25 85° E 22:05:47 10° N
Envisat 4.0 21:57:53 10° S 22:02:44 44° W 22:07:35 10° NNW
CZ-4C R/B 3.8 22:03:35 15° ESE 22:03:35 15° ESE 22:06:36 10° ENE
Cosmos 1758 4.1 21:59:55 10° N 22:03:47 38° ENE 22:05:36 25° SE
Cosmos 407 Rocket 3.7 22:01:26 10° SSW 22:06:41 72° WNW 22:11:54 10° NNE
USA 238 DEB 3.8 22:02:50 10° SSW 22:09:44 57° ESE 22:16:37 10° NE
USA 238 3.8 22:02:57 10° SSW 22:09:50 56° ESE 22:16:42 10° NE
SL-27 R/B 2.3 22:10:37 27° S 22:12:16 63° ESE 22:15:36 10° NNE
Cosmos 1470 4.4 22:15:31 10° NNE 22:18:25 20° ENE 22:19:20 18° E
Cosmos 1805 3.7 22:15:17 10° N 22:19:07 47° ENE 22:20:29 32° SE
IGS 5A 4.2 22:19:53 27° ESE 22:21:27 38° ENE 22:25:20 10° N
COSMOS 2487 3.8 22:24:51 24° E 22:24:51 24° E 22:27:30 10° NE
COSMOS 2406 3.2 22:21:23 15° S 22:26:01 62° ESE 22:31:40 10° NNE
Lacrosse 4 Rocket 3.2 22:22:35 10° WSW 22:26:14 32° NW 22:29:58 10° NNE
Cosmos 1954 Rocket 4.1 22:22:50 10° SSW 22:28:09 80° WNW 22:33:29 10° NNE
Cosmos 1943 Rocket 2.2 22:23:10 10° NNW 22:28:44 73° WSW 22:31:53 27° S
Cosmos 1842 Rocket 3.9 22:27:20 10° N 22:31:37 50° ENE 22:33:08 35° SE
Cosmos 2084 3.6 22:27:51 10° NW 22:31:58 62° SW 22:33:35 35° S
ISS -0.6 22:31:16 10° WNW 22:33:49 21° N 22:36:24 10° NE
DELTA 2 DEB (DPAF) 4.2 22:32:09 30° S 22:34:21 77° WSW 22:38:54 10° NNW
Cosmos 1656 Rocket 3.8 22:29:50 10° NNW 22:35:30 64° ENE 22:38:15 30° SE
SeaSat 1 3.4 22:32:37 20° SSW 22:35:33 39° WSW 22:40:11 10° NW
CZ-4C R/B 3.5 22:36:09 32° S 22:37:55 68° WSW 22:41:53 10° NNW
Atlas Centaur 2 3.9 22:35:06 10° WSW 22:41:04 26° SSW 22:42:50 24° S
Cosmos 2208 Rocket 3.9 22:35:55 10° NNW 22:41:08 85° ENE 22:43:24 35° SSE
Landsat 7 3.9 22:41:37 32° S 22:43:50 76° WSW 22:48:37 10° NNW
NOSS 3-2 (C) 4.2 22:43:08 29° SE 22:44:15 31° ESE 22:49:51 10° NE
Kosmos-1675 4.3 22:47:09 13° SW 22:49:51 73° NW 23:00:56 10° NE
Cosmos 1707 3.8 22:50:19 30° E 22:50:19 30° E 22:53:43 10° NNE
Cosmos 1953 2.8 22:47:37 10° NNW 22:51:31 55° W 22:52:53 35° SSW
Cosmos 1741 Rocket 3.9 22:49:47 25° SSW 22:52:54 83° ESE 22:58:16 10° NNE
Geosat 3.9 22:48:11 10° NNE 22:53:14 74° ESE 22:55:56 28° SSW
Lacrosse 5 rocket 4.3 22:52:30 10° NNW 22:54:32 13° N 22:56:35 10° NE
Cosmos 1092 Rocket 4.0 22:51:45 31° SSE 22:54:49 66° E 23:01:02 10° NNE
Terra 1.8 22:57:56 39° S 22:59:40 75° WSW 23:04:27 10° NNW
Aureole 2 4.2 22:57:02 10° NNW 22:59:44 70° NW 22:59:44 70° NW
Cosmos 2221 3.4 22:56:21 10° N 23:00:16 33° ENE 23:00:54 32° E
Spot 4 3.8 22:58:56 43° SSE 23:00:33 89° N 23:05:22 10° NNW
Nadezhda 4 Rocket 4.0 22:58:24 25° SSW 23:02:19 82° W 23:08:41 10° N
ARGOS 4.3 22:59:31 18° SSW 23:02:52 35° W 23:07:49 10° NNW
Cosmos-2242 4.2 22:58:52 10° NNW 23:02:55 36° W 23:04:55 24° SW
Cosmos 1850 Rocket 4.2 23:04:58 22° SSW 23:08:24 70° WNW 23:13:37 10° NNE
Cosmos 1140 Rocket 4.2 23:06:28 13° SW 23:11:02 52° WNW 23:16:10 10° N
Cosmos 1733 3.3 23:07:51 10° N 23:11:41 59° E 23:11:51 59° E
Meteor 1-24 Rocket 4.5 23:10:29 34° SE 23:11:58 40° E 23:17:24 10° NNE
ATLAS 3B R/B 4.4 23:06:20 10° WSW 23:13:20 37° NW 23:20:10 10° NNE
H-2A R/B 2.5 23:14:20 33° SSW 23:16:14 50° W 23:21:12 10° NNW
SL-8 R/B 3.8 23:13:47 10° WNW 23:18:32 56° SSW 23:19:03 53° S
Lacrosse 5 3.6 23:14:58 10° NW 23:19:22 28° NNE 23:23:43 10° E
Cosmos 468 Rocket 4.4 23:14:41 10° NNW 23:19:52 53° ENE 23:21:20 40° ESE
Cosmos 1607 4.3 23:18:34 10° SW 23:24:47 64° NW 23:30:59 10° NNE
NOSS 3-2 (A) 3.4 23:22:47 33° SSW 23:25:44 72° ESE 23:32:22 10° NE
USA 234 3.6 23:24:29 36° S 23:26:41 49° SW 23:33:02 10° WNW
Cosmos 1814 Rocket 4.3 23:25:34 10° NNW 23:30:48 59° ENE 23:32:11 44° ESE
Cosmos 1655 Rocket 4.0 23:33:11 44° SSE 23:35:15 73° E 23:41:29 10° NNE
Cosmos 1340 3.2 23:35:42 50° W 23:36:04 52° WNW 23:39:49 10° N
Cosmos 1544 4.3 23:32:44 10° NNW 23:36:10 34° W 23:36:27 34° WSW
Cosmos 2344 4.2 23:35:51 34° SE 23:37:31 37° ESE 23:45:04 10° NE
Genesis I 4.4 23:34:09 10° NNW 23:37:49 33° NE 23:38:28 31° ENE
Cosmos 2369 4.0 23:33:21 10° NNW 23:38:56 58° ENE 23:40:41 41° ESE
Timation 2 Rocket 4.4 23:37:11 42° SSE 23:39:02 54° ESE 23:45:37 10° NE
Cosmos 2026 Rocket 3.8 23:39:36 46° S 23:41:32 83° E 23:47:37 10° N
Cosmos 2195 Rocket 4.4 23:40:35 42° SSW 23:42:53 85° W 23:49:12 10° N
Meteor 2-5 Rocket 4.0 23:42:55 36° SSW 23:45:19 66° WNW 23:51:03 10° N
Okean 3 Rocket 4.2 23:45:27 42° WSW 23:46:25 50° WNW 23:50:45 10° N
Cosmos 2228 Rocket 3.5 23:45:55 10° N 23:50:13 49° ENE 23:50:23 48° E
CZ-4C R/B 2.2 23:48:42 36° SW 23:51:03 82° NW 23:57:07 10° NE
Cosmos 1980 Rocket 4.1 23:47:37 10° N 23:51:52 21° NE 23:55:33 12° E
Cosmos 1486 Rocket 3.9 23:51:30 60° SE 23:52:05 66° ESE 23:57:16 10° NNE
Meteor 1-16 Rocket 4.3 23:47:50 10° NNW 23:53:29 71° W 23:54:59 50° SSW
BREEZE-M DEB (TANK) 4.4 23:52:13 10° NW 23:53:55 21° N 23:56:17 10° ENE
Cosmos 1763 Rocket 4.0 23:49:08 10° N 23:54:19 51° ENE 23:55:33 42° ESE
Cosmos 1470 4.1 23:51:11 10° NNW 23:54:34 29° W 23:54:45 29° W
